Other Public Products
Issued by NWS Grand Forks, ND

Home | Current Version | Previous Version | Graphics & Text | Print | Product List | Glossary On
Versions: 1 2 3 4 5 6 7 8 9 10 11 12 13 14 15 16 17 18 19 20 21 22 23 24 25 26 27 28 29 30 31 32 33 34 35 36 37 38 39 40 41 42 43 44 45 46 47 48 49 50
000
FPUS83 KFGF 230410
OPUFGF
PRAIRIE TO PINES WEATHER ROUNDUP
NATIONAL WEATHER SERVICE EASTERN NORTH DAKOTA/GRAND FORKS ND
1100 PM CDT FRI JUL 22 2016

 **SATELLITE DATA USED TO AUGMENT SKY COVER AT AUTOMATED STATIONS**
 *****  WEATHER ACROSS EASTERN NORTH DAKOTA  *****

CITY           SKY/WX    TMP DP  RH WIND       PRES   REMARKS
GRAND FORKS    CLOUDY    75  67  76 E6        29.98S
GRAND FORKS AF CLOUDY    74  67  80 S2        30.01R
GRAND CITY NWS   N/A     73 N/A N/A E1          N/A
BUXTON           N/A     73  72  95 E2          N/A
DEVILS LAKE    CLOUDY    75  67  76 E12       30.02R
FARGO          CLOUDY    75  67  76 NE6       29.99R
WAHPETON ARPT  CLOUDY    73  68  83 CALM      29.98R
$$

 *****  WEATHER ACROSS CENTRAL AND WESTERN NORTH DAKOTA  *****

CITY           SKY/WX    TMP DP  RH WIND       PRES   REMARKS
JAMESTOWN      LGT RAIN  76  70  82 SW14      30.04S
BISMARCK       CLOUDY    70  65  84 SE18      30.02F
MINOT          CLOUDY    77  64  64 E14       29.91F
MINOT AFB      CLOUDY    73  65  75 E13       29.90F
GARRISON         N/A     70  67  90 SE17G29   29.86F
WILLISTON      MOCLDY    74  67  78 E7        29.83F
DICKINSON      LGT RAIN  66  62  87 E23G39    29.90F
HETTINGER      CLOUDY    70  63  78 E22G29    29.96S
$$

 *****  OTHER OBSERVATIONS NORTHEAST NORTH DAKOTA  *****

CITY           SKY/WX    TMP DP  RH WIND       PRES   REMARKS
WALHALLA       NOT AVBL
LANGDON        FAIR      66  66 100 SE6       30.02S
CAVALIER       FAIR      70  68  94 CALM      30.00R
GRAFTON        FAIR      72  70  94 E3        30.02R
CANDO          NOT AVBL
FORT TOTTEN      N/A     74  64  70 SE7       29.95
ROLLA          FAIR      68  64  88 SE7       30.01S
RUGBY          NOT AVBL
 ***** THE ABOVE OBSERVATIONS ARE NON NWS ARE NOT QUALITY
        CONTROLLED AND MAY MIS-REPORT RAIN FOR SNOW...
$$

 *****  OTHER OBSERVATIONS SOUTHEAST NORTH DAKOTA *****

CITY           SKY/WX    TMP DP  RH WIND       PRES   REMARKS
COOPERSTOWN    NOT AVBL
VALLEY CITY      N/A     72  72 100 CALM      30.07R
OAKES            N/A    N/A N/A N/A MISG        N/A
GWINNER        FAIR      75  72  88 W3        30.00F
SHEYENNE NWR     N/A     78  69  73 NE6       29.95S
BUFFALO          N/A     73  65  76 NE5         N/A
WYNDMERE       NOT AVBL
 ***** THE ABOVE OBSERVATIONS ARE NON NWS ARE NOT QUALITY
       CONTROLLED AND MAY MIS-REPORT RAIN FOR SNOW...
$$

  *****  WEATHER ACROSS NORTHERN MINNESOTA  *****

CITY           SKY/WX    TMP DP  RH WIND       PRES   REMARKS
FLAG ISLAND    CLEAR     73  61  64 NW5       30.00R
WARROAD        CLOUDY    66  61  82 CALM      30.03R
ROSEAU         CLOUDY    64  61  88 CALM      30.03R
HALLOCK        MOCLDY    70  66  88 CALM      30.00S
THF RVR FALLS  CLOUDY    67  64  90 CALM      30.03R
HALSTAD        NOT AVBL
FOSSTON        CLOUDY    66  64  94 CALM      30.03S
BAUDETTE       CLEAR     64  61  90 W3        30.02R
WASKISH        CLOUDY    64  63  94 CALM      30.02R
CROOKSTON      CLOUDY    73  64  73 NE6       30.01S
$$
  *****  WEATHER ACROSS CENTRAL AND WEST MINNESOTA  *****

CITY           SKY/WX    TMP DP  RH WIND       PRES   REMARKS
BEMIDJI        PTCLDY    68  64  88 NW3       30.04R
PARK RAPIDS    CLOUDY    76  65  68 NE3       30.03R
WADENA         CLOUDY    70  66  88 CALM      30.01R
DETROIT LAKES  CLOUDY    75  66  73 CALM      30.03S
MOORHEAD       CLOUDY    73  68  83 CALM      30.00R
FERGUS FALLS   CLOUDY    79  70  73 CALM      30.00R
ELBOW LAKE     FAIR      77  70  79 SE5       29.99S
MORRIS MN      CLOUDY    73  70  88 CALM      29.97F
STAPLES        MOCLDY    75  68  78 NE3       30.01R
WHEATON        MOCLDY    73  72  94 CALM      30.00R
$$
  *****  WEATHER ELSEWHERE ACROSS MINNESOTA  *****

CITY           SKY/WX    TMP DP  RH WIND       PRES   REMARKS
DULUTH         CLEAR     73  58  59 NW5       30.00R
INTRNTL FALLS  CLEAR     61  58  90 CALM      30.00R
ELY            CLEAR     61  57  88 CALM      30.01R
CLOQUET        CLOUDY    70  63  78 CALM      30.00F
BRAINERD       PTCLDY    72  71  97 CALM      30.01R
HIBBING        CLOUDY    62  61  96 CALM      30.02R
ALEXANDRIA     PTCLDY    77  69  76 CALM      30.01S
SAINT CLOUD    CLOUDY    70  69  97 CALM      29.98S
MINNEAPOLIS    CLOUDY    84  64  50 E7        29.97S
$$

  *****  WEATHER ACROSS SOUTH DAKOTA  *****

CITY           SKY/WX    TMP DP  RH WIND       PRES   REMARKS
SIOUX FALLS    CLOUDY    83  78  85 E9        29.93R HX  93
BROOKINGS      CLOUDY    79  72  79 E10       29.96S
WATERTOWN      MOCLDY    76  68  76 NE7       29.99R
HURON          CLOUDY    82  76  81 NE5       29.93R
SISSETON         N/A     73  70  90 CALM      29.97F
ABERDEEN       MOCLDY    77  69  76 SW5G17    29.99R
MITCHELL       CLOUDY    83  78  85 SE7       29.91S HX  93
PIERRE         CLOUDY    81  67  62 E16       29.91S
MOBRIDGE       CLOUDY    72  64  76 NE12      29.95F
RAPID CITY     CLEAR     74  58  57 S7        29.95R
$$

  *****  SOME WEATHER IN NEARBY STATES *****

CITY           SKY/WX    TMP DP  RH WIND       PRES   REMARKS
GLASGOW MT     CLOUDY    78  60  53 E8        29.73F
GREAT FALLS MT PTCLDY    67  39  35 N8        30.00R
CHEYENNE WY    CLOUDY    76  47  35 SW12      30.17R
SCOTTSBLUFF NE CLOUDY    70  59  68 SE15      30.03R
OMAHA NE       PTCLDY    86  79  79 SE16      29.91R HX  99
DES MOINES IA  PTCLDY    84  78  82 SE7       29.95S HX  95
DAVENPORT IA   CLEAR     76  74  93 CALM      29.99S
CHICAGO IL     MOCLDY    84  76  76 W5        29.98S HX  93
EAU CLAIRE WI  PTCLDY    73  70  90 E3        29.98S
LA CROSSE WI   PTCLDY    80  74  81 CALM      29.98R
$$

  *****  SOME NATIONAL WEATHER *****

CITY           SKY/WX    TMP DP  RH WIND       PRES   REMARKS
LA GUARDIA NY  PTCLDY    88  70  55 SW12      29.80R HX  93
RALEIGH NC     PTCLDY    74  70  87 SW6       30.02S
ATLANTA GA     PTCLDY    81  71  71 S6        30.07R
NEW ORLEANS LA PTCLDY    83  77  82 CALM      30.03R HX  92
OKLAHOMA CITY  CLEAR     80  70  71 S6        29.99R
ALBUQUERQUE NM MOCLDY    90  40  17 SW8       30.14R
SALT LAKE CITY PTCLDY    85  36  17 SW7       30.02R
LOS ANGELES CA PTCLDY    74  59  59 S6        29.82S
BOISE ID       CLEAR     79  33  19 N6        30.03S
SEATTLE WA     MOCLDY    62  58  86 W5        30.28R
$$

*** WEATHER ACROSS MANITOBA...SASKATCHEWAN AND ONTARIO ***
                ***ONTARIO***

CITY           SKY/WX    TMP DP  RH WIND       PRES   REMARKS
GERALDTON      LGT RAIN  63  61  94 W6        29.91S
THUNDER BAY    PTCLDY    70  63  78 W3        29.93R
SIOUX LOOKOUT  NOT AVBL
TORONTO        PTCLDY    79  57  47 NW10      29.88R
BIG TROUT LK   CLEAR     55  50  82 NE6       29.96R
PICKLE LAKE    NOT AVBL
DRYDEN         CLEAR     70  57  64 W6        29.99R
KENORA         PTCLDY    72  55  56 N6        30.02R
$$
                *** MANITOBA***

CITY           SKY/WX    TMP DP  RH WIND       PRES   REMARKS
BRANDON        MOCLDY    68  63  83 E5        29.99S
DAUPHIN        CLEAR     66  59  77 S7        29.96R
ISLAND LAKE    PTCLDY    63  55  77 NE5       29.95R
PILOT MOUND      N/A     66  63  88 SE6         N/A
THE PAS        PTCLDY    63  55  77 SE6       29.91S
THOMPSON       PTCLDY    52  45  76 VRB2      29.92S
WINNIPEG       PTCLDY    66  61  82 CALM      30.00R
LYNN LAKE      CLEAR     55  45  67 MISG      29.85F
CHURCHILL      MOCLDY    52  43  71 S6        29.91S
GILLAM         PTCLDY    50  43  76 E3        29.94R
$$
                ***SASKATCHEWAN***

CITY           SKY/WX    TMP DP  RH WIND       PRES   REMARKS
ESTEVAN        MOCLDY    72  64  78 E14G21    29.90R
KINDERSLEY     TSTM      61  57  88 E16G26    29.89R
LLOYDMINSTER   MOCLDY    68  59  73 SE9       29.82F
PRINCE ALBERT  MOCLDY    68  61  77 SE6       29.86F
REGINA         CLOUDY    72  61  68 SE21G28   29.85S
YORKTON        MOCLDY    68  59  73 SE8       29.92S  C1F1C2F2C3F3C4F4C5F5C6F6C7F7C8F8C9F9CaFaCbFbCcFcCdFdCe!


USA.gov is the U.S. government's official web portal to all federal, state and local government web resources and services.